Date String (YYYY-MM-DD hh:mm:ss) UTC,Instrument flags,Ambient pressure (hPa),Sample flow (lpm),Bypass flow (lpm),Sample temperature (°C),Ambient temperature (°C),ASC tube jacket temperature (°C),LED temperature (°C),Box temperature (°C),Sample RH (%),Span deviation,Mass concentration (μg/m³),Mass concentration (μg/m³),Mass concentration (μg/m³)
DateTimeUTC,F1_M11,P_M11,Q1_M11,Q2_M11,T1_M11,T2_M11,T3_M11,T4_M11,T5_M11,U1_M11,ZSPAN_M11,X0_M11,X2_M11,X1_M11
2021-12-01 11:00:00,,0827.2,5.00,0.00,26.3,25.4,00.0,35.3,28.0,10.0,0000.0,0009.13,0002.43,0001.19
2021-12-01 11:01:00,,0827.1,5.02,0.00,26.3,25.4,00.0,35.3,28.0,10.0,0000.0,0009.02,0002.54,0001.18
2021-12-01 11:02:00,,0827.2,4.99,0.00,26.3,25.4,00.0,35.3,28.1,10.0,0000.0,0008.38,0002.55,0001.16
2021-12-01 11:03:00,,0827.1,5.00,0.00,26.3,25.3,00.0,35.3,28.0,10.0,0000.0,0007.58,0002.44,0001.14
2021-12-01 11:04:00,,0827.2,5.01,0.00,26.2,25.3,00.0,35.3,27.9,10.0,0000.0,0007.05,0002.35,0001.10
2021-12-01 11:05:00,,0827.2,4.99,0.00,26.2,25.3,00.0,35.3,27.9,10.1,0000.0,0006.91,0002.30,0001.07
2021-12-01 11:06:00,,0827.2,5.00,0.00,26.2,25.2,00.0,35.3,27.9,10.2,0000.0,0007.71,0002.35,0001.06
2021-12-01 11:07:00,,0827.2,5.00,0.00,26.2,25.2,00.0,35.3,27.9,10.0,0000.0,0008.20,0002.36,0001.04
2021-12-01 11:08:00,,0827.2,4.99,0.00,26.2,25.2,00.0,35.2,27.9,10.0,0000.0,0008.17,0002.27,0001.02
2021-12-01 11:09:00,,0827.2,5.01,0.00,26.2,25.2,00.0,35.2,28.0,10.0,0000.0,0008.16,0002.17,0001.01
2021-12-01 11:10:00,,0827.2,4.99,0.00,26.2,25.3,00.0,35.2,28.0,10.0,0000.0,0007.91,0002.10,0000.97
2021-12-01 11:11:00,,0827.3,5.00,0.00,26.2,25.3,00.0,35.2,28.0,10.0,0000.0,0007.26,0002.00,0000.93
2021-12-01 11:12:00,,0827.4,5.00,0.00,26.2,25.3,00.0,35.2,28.0,10.2,0000.0,0007.08,0001.94,0000.94
2021-12-01 11:13:00,,0827.4,4.99,0.00,26.2,25.3,00.0,35.2,28.0,10.2,0000.0,0007.15,0002.00,0000.98
2021-12-01 11:14:00,,0827.4,5.00,0.00,26.2,25.3,00.0,35.2,28.0,10.2,0000.0,0007.28,0002.07,0001.00
2021-12-01 11:15:00,,0827.3,5.00,0.00,26.2,25.3,00.0,35.2,28.1,10.2,0000.0,0007.31,0002.18,0001.03
2021-12-01 11:16:00,,0827.3,5.01,0.00,26.2,25.3,00.0,35.2,28.1,10.2,0000.0,0008.20,0002.24,0001.06
2021-12-01 11:17:00,,0827.2,4.99,0.00,26.2,25.3,00.0,35.2,28.0,10.2,0000.0,0008.13,0002.22,0001.06
2021-12-01 11:18:00,,0827.3,5.00,0.00,26.2,25.3,00.0,35.2,28.0,10.2,0000.0,0008.69,0002.21,0001.07
2021-12-01 11:19:00,,0827.2,5.00,0.00,26.2,25.3,00.0,35.2,28.0,10.3,0000.0,0008.65,0002.29,0001.11
2021-12-01 11:20:00,,0827.2,5.01,0.00,26.2,25.3,00.0,35.2,28.0,10.3,0000.0,0008.56,0002.30,0001.14
2021-12-01 11:21:00,,0827.2,4.99,0.00,26.2,25.3,00.0,35.2,28.0,10.3,0000.0,0008.86,0002.44,0001.19
2021-12-01 11:22:00,,0827.2,5.01,0.00,26.2,25.3,00.0,35.2,28.0,10.3,0000.0,0009.08,0002.58,0001.26
2021-12-01 11:23:00,,0827.3,4.99,0.00,26.2,25.3,00.0,35.2,28.0,10.3,0000.0,0009.36,0002.67,0001.29
2021-12-01 11:24:00,,0827.3,5.01,0.00,26.2,25.3,00.0,35.2,28.0,10.3,0000.0,0009.52,0002.65,0001.28
2021-12-01 11:25:00,,0827.4,5.00,0.00,26.2,25.3,00.0,35.2,28.0,10.3,0000.0,0009.75,0002.61,0001.29
2021-12-01 11:26:00,,0827.4,5.00,0.00,26.2,25.3,00.0,35.2,28.0,10.2,0000.0,0009.57,0002.53,0001.28
2021-12-01 11:27:00,,0827.4,4.99,0.00,26.2,25.3,00.0,35.2,28.0,10.2,0000.0,0008.71,0002.52,0001.27
2021-12-01 11:28:00,,0827.4,5.01,0.00,26.2,25.3,00.0,35.2,28.0,10.3,0000.0,0008.33,0002.58,0001.27
2021-12-01 11:29:00,,0827.4,5.00,0.00,26.2,25.3,00.0,35.2,28.0,10.3,0000.0,0007.26,0002.63,0001.29
2021-12-01 11:30:00,,0827.4,5.01,0.00,26.2,25.3,00.0,35.2,28.1,10.2,0000.0,0006.91,0002.54,0001.27
2021-12-01 11:31:00,,0827.3,5.00,0.00,26.2,25.4,00.0,35.2,28.0,10.2,0000.0,0007.09,0002.58,0001.24
2021-12-01 11:32:00,,0827.3,4.99,0.00,26.2,25.4,00.0,35.2,28.0,10.2,0000.0,0006.63,0002.49,0001.21
2021-12-01 11:33:00,,0827.3,5.01,0.00,26.2,25.4,00.0,35.2,28.0,10.2,0000.0,0006.45,0002.44,0001.17
2021-12-01 11:34:00,,0827.3,4.99,0.00,26.3,25.4,00.0,35.2,28.1,10.1,0000.0,0005.93,0002.30,0001.11
2021-12-01 11:35:00,,0827.4,5.00,0.00,26.3,25.4,00.0,35.2,28.1,10.1,0000.0,0005.69,0002.27,0001.07
2021-12-01 11:36:00,,0827.3,5.00,0.00,26.3,25.4,00.0,35.2,28.1,10.1,0000.0,0005.34,0002.29,0001.04
2021-12-01 11:37:00,,0827.4,5.00,0.00,26.3,25.4,00.0,35.2,28.1,10.1,0000.0,0005.50,0002.36,0001.05
2021-12-01 11:38:00,,0827.3,4.99,0.00,26.3,25.4,00.0,35.2,28.1,10.1,0000.0,0005.78,0002.33,0001.05
2021-12-01 11:39:00,,0827.4,5.02,0.00,26.3,25.4,00.0,35.2,28.1,10.0,0000.0,0006.24,0002.30,0001.04
2021-12-01 11:40:00,,0827.4,4.99,0.00,26.3,25.4,00.0,35.2,28.1,10.0,0000.0,0006.60,0002.32,0001.02
2021-12-01 11:41:00,,0827.4,5.00,0.00,26.3,25.4,00.0,35.2,28.1,10.0,0000.0,0007.30,0002.36,0001.03
2021-12-01 11:42:00,,0827.4,5.00,0.00,26.3,25.4,00.0,35.2,28.1,10.0,0000.0,0008.46,0002.32,0001.04
2021-12-01 11:43:00,,0827.3,4.99,0.00,26.3,25.4,00.0,35.2,28.1,09.9,0000.0,0008.46,0002.30,0001.05
2021-12-01 11:44:00,,0827.4,5.01,0.00,26.3,25.4,00.0,35.2,28.1,10.0,0000.0,0008.37,0002.25,0001.04
2021-12-01 11:45:00,,0827.4,5.00,0.00,26.3,25.4,00.0,35.2,28.1,10.0,0000.0,0008.35,0002.25,0001.03
2021-12-01 11:46:00,,0827.4,5.01,0.00,26.3,25.4,00.0,35.2,28.1,10.0,0000.0,0008.23,0002.23,0001.04
2021-12-01 11:47:00,,0827.4,4.99,0.00,26.3,25.4,00.0,35.2,28.1,10.0,0000.0,0008.20,0002.19,0001.03
2021-12-01 11:48:00,,0827.4,5.01,0.00,26.3,25.4,00.0,35.2,28.1,10.0,0000.0,0008.10,0002.09,0001.01
2021-12-01 11:49:00,,0827.4,4.99,0.00,26.3,25.4,00.0,35.2,28.1,10.0,0000.0,0008.03,0002.08,0001.00
2021-12-01 11:50:00,,0827.5,5.01,0.00,26.3,25.4,00.0,35.2,28.1,10.0,0000.0,0007.73,0002.01,0000.99
2021-12-01 11:51:00,,0827.5,4.99,0.00,26.3,25.4,00.0,35.2,28.1,10.0,0000.0,0007.57,0001.90,0000.99
2021-12-01 11:52:00,,0827.5,5.00,0.00,26.3,25.4,00.0,35.3,28.1,10.1,0000.0,0006.87,0001.88,0000.97
2021-12-01 11:53:00,,0827.5,5.01,0.00,26.3,25.4,00.0,35.2,28.1,10.1,0000.0,0005.85,0001.91,0000.96
2021-12-01 11:54:00,,0827.5,4.99,0.00,26.3,25.4,00.0,35.2,28.1,10.2,0000.0,0006.88,0001.98,0000.96
2021-12-01 11:55:00,,0827.5,5.00,0.00,26.3,25.4,00.0,35.3,28.1,10.1,0000.0,0007.08,0002.06,0000.98
2021-12-01 11:56:00,,0827.5,5.00,0.00,26.3,25.4,00.0,35.3,28.1,10.1,0000.0,0007.33,0002.13,0001.01
2021-12-01 11:57:00,,0827.6,5.00,0.00,26.3,25.4,00.0,35.2,28.1,10.1,0000.0,0007.32,0002.14,0001.05
2021-12-01 11:58:00,,0827.5,4.99,0.00,26.3,25.4,00.0,35.2,28.1,10.2,0000.0,0007.29,0002.19,0001.07
2021-12-01 11:59:00,,0827.6,5.01,0.00,26.3,25.4,00.0,35.2,28.1,10.1,0000.0,0007.39,0002.24,0001.09
